TimeCDT,TemperatureF,Dew PointF,Humidity,Sea Level PressureIn,VisibilityMPH,Wind Direction,Wind SpeedMPH,Gust SpeedMPH,PrecipitationIn,Events,Conditions,WindDirDegrees,DateUTC
12:56 AM,33.1,28.0,82,30.10,-9999.0,NNE,6.9,-,0.01,,Unknown,20,2013-04-18 05:56:00
1:56 AM,33.1,28.0,82,30.05,-9999.0,NE,8.1,-,0.01,,Unknown,40,2013-04-18 06:56:00
2:56 AM,32.0,28.0,85,30.02,-9999.0,NNE,4.6,-,0.01,,Unknown,20,2013-04-18 07:56:00
3:56 AM,32.0,28.0,85,29.98,-9999.0,North,8.1,-,0.04,,Unknown,10,2013-04-18 08:56:00
4:56 AM,33.1,27.0,78,29.95,-9999.0,Variable,4.6,-,0.01,,Unknown,0,2013-04-18 09:56:00
5:56 AM,33.1,27.0,78,29.92,-9999.0,North,10.4,19.6,N/A,,Unknown,10,2013-04-18 10:56:00
6:56 AM,33.1,28.0,82,29.92,-9999.0,North,9.2,-,0.01,,Unknown,10,2013-04-18 11:56:00
7:56 AM,34.0,28.0,79,29.91,-9999.0,NNE,8.1,-,0.01,,Unknown,20,2013-04-18 12:56:00
8:56 AM,34.0,30.0,85,29.89,-9999.0,ENE,8.1,-,0.02,,Unknown,60,2013-04-18 13:56:00
9:56 AM,36.0,28.9,76,29.86,-9999.0,NE,8.1,-,0.01,,Unknown,50,2013-04-18 14:56:00
10:56 AM,37.0,28.9,73,29.80,-9999.0,NE,9.2,-,N/A,,Unknown,50,2013-04-18 15:56:00
11:56 AM,36.0,30.0,79,29.80,-9999.0,East,6.9,-,N/A,,Unknown,80,2013-04-18 16:56:00
12:56 PM,39.0,30.0,70,29.76,-9999.0,ENE,6.9,-,N/A,,Unknown,60,2013-04-18 17:56:00
1:56 PM,39.9,30.0,68,29.75,-9999.0,NE,9.2,-,N/A,,Unknown,50,2013-04-18 18:56:00
2:56 PM,37.9,30.9,76,29.74,-9999.0,ENE,4.6,-,N/A,,Unknown,60,2013-04-18 19:56:00
3:56 PM,37.9,30.9,76,29.70,-9999.0,NNE,4.6,-,N/A,,Unknown,30,2013-04-18 20:56:00
4:56 PM,35.1,30.9,85,29.74,-9999.0,NNE,5.8,-,0.02,,Unknown,30,2013-04-18 21:56:00
5:56 PM,34.0,30.9,89,29.67,-9999.0,NNE,8.1,24.2,0.11,,Unknown,30,2013-04-18 22:56:00
6:56 PM,34.0,30.9,89,29.62,-9999.0,NE,13.8,20.7,0.05,,Unknown,40,2013-04-18 23:56:00
7:56 PM,34.0,30.0,85,29.64,-9999.0,NNE,8.1,-,0.07,,Unknown,30,2013-04-19 00:56:00
8:56 PM,33.1,30.0,89,29.60,-9999.0,NNE,11.5,23.0,0.07,,Unknown,30,2013-04-19 01:56:00
9:56 PM,33.1,28.9,85,29.60,-9999.0,NE,9.2,27.6,0.03,,Unknown,40,2013-04-19 02:56:00
10:56 PM,32.0,28.9,88,29.61,-9999.0,NNE,13.8,25.3,0.12,,Unknown,30,2013-04-19 03:56:00
11:56 PM,32.0,27.0,82,29.49,-9999.0,NNE,15.0,29.9,0.12,,Unknown,30,2013-04-19 04:56:00